Frankfort, MI

2:33 PM EST on December 07, 2019 (GMT -0500)
Frankfort

Weather History for KFKS - October, 2019

Change the Weather History Date:

Tuesday, October 22, 2019

  Actual Average (WUND) Record (WUND)
Temperature  
Mean Temperature 52 °F -  
Max Temperature 56 °F - - (-1)
Min Temperature 47 °F - - (-1)
Degree Days  
Heating Degree Days 14    
Growing Degree Days 2 (Base 50)    
Moisture  
Dew Point 41 °F    
Average Humidity 66    
Maximum Humidity 79    
Minimum Humidity 54    
Precipitation  
Precipitation 0.00 in - - ()
Sea Level Pressure  
Sea Level Pressure 29.43 in    
Wind  
Wind Speed 15 mph (SSW)    
Max Wind Speed 22 mph    
Max Gust Speed 40 mph    
Visibility 10 miles    
Events Rain    
Averages and records for this station are not official NWS values.
T = Trace of Precipitation, MM = Missing Value Source: NWS Daily Summary

Daily Weather History Graph

Daily Weather History Graph

Search for Another Location

Airport or City:

Astronomy

Oct. 22, 2019 Rise Set
Actual Time 8:08 AM EDT 6:48 PM EDT
Civil Twilight 7:39 AM EDT 7:18 PM EDT
Nautical Twilight 7:05 AM EDT 7:52 PM EDT
Astronomical Twilight 6:31 AM EDT 8:26 PM EDT
Moon 12:57 AM EDT (10/22) 4:16 PM EDT (10/22)
Length of Visible Light 11h 39m
Length of Day
10h 40m
Last Quarter, 37% of the Moon is Illuminated
Oct 22
Last Quarter
Oct 27
New
Nov 4
First Quarter
Nov 12
Full
Nov 19
Last Quarter

Hourly Weather History & Observations

Time (EDT) Temp. Dew Point Humidity Pressure Visibility Wind Dir Wind Speed Gust Speed Precip Events Conditions
12:15 AM 56.8 °F 42.3 °F 58% 29.48 in 10.0 mi South 15.0 mph 28.8 mph N/A   Mostly Cloudy
12:35 AM 56.3 °F 40.8 °F 56% 29.48 in 10.0 mi South 15.0 mph 24.2 mph N/A   Overcast
12:36 AM 56.3 °F 40.8 °F 56% 29.48 in 10.0 mi South 15.0 mph 24.2 mph N/A   Overcast
12:59 AM 56.3 °F 40.3 °F 55% 29.47 in 10.0 mi South 16.1 mph 24.2 mph N/A   Overcast
1:17 AM 55.8 °F 40.8 °F 57% 29.47 in 10.0 mi South 13.8 mph 23.0 mph N/A   Scattered Clouds
1:35 AM 55.4 °F 40.8 °F 58% 29.46 in 10.0 mi South 12.7 mph 17.3 mph N/A   Mostly Cloudy
1:55 AM 55.0 °F 39.2 °F 55% 29.46 in 10.0 mi South 13.8 mph 18.4 mph N/A   Overcast
1:56 AM 55.2 °F 39.0 °F 54% 29.46 in 10.0 mi South 12.7 mph 18.4 mph N/A   Overcast
2:15 AM 54.7 °F 39.2 °F 56% 29.45 in 10.0 mi SSE 10.4 mph 17.3 mph N/A   Overcast
2:20 AM 54.7 °F 39.2 °F 56% 29.45 in 10.0 mi SSE 10.4 mph 17.3 mph N/A   Overcast
2:38 AM 54.3 °F 39.7 °F 58% 29.45 in 10.0 mi SSE 11.5 mph - N/A   Overcast
2:56 AM 53.8 °F 39.9 °F 59% 29.45 in 10.0 mi SSE 9.2 mph - N/A   Overcast
3:15 AM 53.8 °F 40.1 °F 60% 29.45 in 10.0 mi SSE 11.5 mph - N/A   Overcast
3:16 AM 53.8 °F 40.1 °F 60% 29.44 in 10.0 mi SSE 11.5 mph - N/A   Overcast
3:35 AM 53.8 °F 40.1 °F 60% 29.44 in 10.0 mi SSE 11.5 mph 20.7 mph N/A   Overcast
3:59 AM 53.8 °F 40.3 °F 60% 29.43 in 10.0 mi SSE 12.7 mph - N/A   Overcast
4:17 AM 53.8 °F 40.5 °F 61% 29.42 in 10.0 mi SSE 12.7 mph 17.3 mph N/A   Overcast
4:35 AM 53.8 °F 41.0 °F 62% 29.41 in 10.0 mi SSE 12.7 mph 18.4 mph N/A   Overcast
4:55 AM 53.8 °F 41.0 °F 62% 29.40 in 10.0 mi SSE 9.2 mph 16.1 mph N/A   Overcast
4:56 AM 53.8 °F 41.0 °F 62% 29.40 in 10.0 mi SSE 9.2 mph 16.1 mph N/A   Overcast
5:15 AM 53.6 °F 41.0 °F 62% 29.39 in 10.0 mi SSE 10.4 mph 17.3 mph N/A   Overcast
5:20 AM 53.2 °F 41.0 °F 63% 29.39 in 10.0 mi SSE 9.2 mph 16.1 mph N/A   Overcast
5:38 AM 52.2 °F 41.0 °F 66% 29.38 in 10.0 mi SSE 8.1 mph - N/A   Mostly Cloudy
5:56 AM 52.3 °F 41.2 °F 66% 29.37 in 10.0 mi SSE 11.5 mph 17.3 mph N/A   Overcast
6:15 AM 52.3 °F 41.4 °F 66% 29.36 in 10.0 mi SSE 12.7 mph 18.4 mph N/A   Overcast
6:16 AM 52.3 °F 41.2 °F 66% 29.36 in 10.0 mi SSE 10.4 mph 16.1 mph N/A   Overcast
6:35 AM 52.7 °F 41.4 °F 65% 29.35 in 10.0 mi SSE 15.0 mph 19.6 mph N/A   Overcast
6:36 AM 52.7 °F 41.4 °F 65% 29.35 in 10.0 mi SSE 13.8 mph 19.6 mph N/A   Overcast
6:59 AM 52.3 °F 42.1 °F 68% 29.34 in 10.0 mi SSE 11.5 mph 18.4 mph N/A   Overcast
7:17 AM 51.3 °F 43.0 °F 73% 29.35 in 5.0 mi South 10.4 mph 18.4 mph N/A Rain Heavy Rain
7:35 AM 50.9 °F 44.6 °F 79% 29.34 in 10.0 mi South 8.1 mph - N/A   Overcast
7:55 AM 51.3 °F 43.2 °F 74% 29.34 in 10.0 mi South 12.7 mph 24.2 mph N/A   Overcast
8:15 AM 51.4 °F 42.8 °F 72% 29.33 in 10.0 mi South 17.3 mph 23.0 mph N/A   Overcast
8:38 AM 53.1 °F 40.8 °F 63% 29.33 in 10.0 mi SSW 21.9 mph 31.1 mph N/A   Overcast
8:56 AM 50.7 °F 43.3 °F 76% 29.33 in 2.5 mi South 12.7 mph 29.9 mph N/A Rain Rain
9:15 AM 50.9 °F 43.0 °F 74% 29.33 in 10.0 mi South 12.7 mph 21.9 mph N/A   Overcast
9:16 AM 50.9 °F 43.0 °F 74% 29.32 in 10.0 mi South 13.8 mph 21.9 mph N/A   Overcast
9:35 AM 51.8 °F 42.4 °F 70% 29.33 in 10.0 mi South 13.8 mph 28.8 mph N/A   Overcast
9:59 AM 52.7 °F 42.1 °F 67% 29.33 in 10.0 mi South 20.7 mph 32.2 mph N/A   Overcast
10:17 AM 52.7 °F 41.4 °F 65% 29.33 in 10.0 mi South 19.6 mph 40.3 mph N/A   Overcast
10:35 AM 52.5 °F 41.9 °F 67% 29.33 in 7.0 mi SSW 20.7 mph 38.0 mph N/A Rain Rain
10:55 AM 51.1 °F 43.0 °F 74% 29.33 in 10.0 mi SSW 18.4 mph 31.1 mph N/A Rain Light Rain
10:56 AM 51.3 °F 43.0 °F 73% 29.33 in 10.0 mi SSW 20.7 mph 31.1 mph N/A Rain Light Rain
11:20 AM 51.8 °F 42.4 °F 70% 29.33 in 10.0 mi SSW 19.6 mph 32.2 mph N/A   Overcast
11:38 AM 51.3 °F 42.3 °F 71% 29.34 in 7.0 mi SSW 13.8 mph 34.5 mph N/A   Light Drizzle
11:56 AM 51.8 °F 42.1 °F 69% 29.35 in 10.0 mi SSW 19.6 mph 29.9 mph N/A   Overcast
12:15 PM 52.5 °F 42.6 °F 69% 29.35 in 10.0 mi SSW 20.7 mph 29.9 mph N/A   Overcast
12:35 PM 52.2 °F 42.8 °F 70% 29.36 in 10.0 mi SSW 19.6 mph 28.8 mph N/A   Light Drizzle
12:36 PM 52.0 °F 42.6 °F 70% 29.36 in 10.0 mi SSW 20.7 mph 31.1 mph N/A   Light Drizzle
1:17 PM 52.7 °F 42.1 °F 67% 29.37 in 10.0 mi SSW 21.9 mph 31.1 mph N/A   Overcast
1:35 PM 52.7 °F 41.5 °F 66% 29.37 in 10.0 mi SW 19.6 mph 35.7 mph N/A   Overcast
1:55 PM 52.2 °F 41.7 °F 68% 29.38 in 10.0 mi SSW 19.6 mph 33.4 mph N/A   Overcast
1:56 PM 52.2 °F 41.7 °F 68% 29.38 in 10.0 mi SSW 18.4 mph 33.4 mph N/A   Overcast
2:15 PM 51.8 °F 41.5 °F 68% 29.38 in 10.0 mi SSW 13.8 mph 29.9 mph N/A   Overcast
2:20 PM 52.0 °F 41.9 °F 69% 29.39 in 10.0 mi SSW 13.8 mph 29.9 mph N/A   Overcast
2:38 PM 52.0 °F 41.0 °F 66% 29.39 in 10.0 mi SSW 13.8 mph 29.9 mph N/A   Overcast
2:56 PM 51.8 °F 40.1 °F 64% 29.40 in 10.0 mi SW 15.0 mph 26.5 mph N/A   Overcast
3:35 PM 51.3 °F 40.8 °F 67% 29.41 in 10.0 mi SSW 12.7 mph 28.8 mph N/A   Overcast
3:36 PM 51.3 °F 41.0 °F 68% 29.41 in 10.0 mi SSW 13.8 mph 27.6 mph N/A   Overcast
3:59 PM 51.4 °F 41.5 °F 69% 29.42 in 10.0 mi SSW 17.3 mph 27.6 mph N/A   Overcast
4:17 PM 50.9 °F 42.6 °F 73% 29.43 in 7.0 mi SW 12.7 mph 25.3 mph N/A   Overcast
4:35 PM 51.8 °F 40.3 °F 65% 29.44 in 10.0 mi SW 16.1 mph 26.5 mph N/A   Overcast
4:36 PM 51.6 °F 40.5 °F 66% 29.44 in 7.0 mi SSW 16.1 mph 26.5 mph N/A Rain Light Rain
4:55 PM 50.4 °F 41.2 °F 71% 29.45 in 10.0 mi SW 16.1 mph 27.6 mph N/A   Overcast
4:56 PM 50.5 °F 41.4 °F 71% 29.45 in 10.0 mi SW 15.0 mph 23.0 mph N/A   Overcast
5:15 PM 50.9 °F 40.8 °F 68% 29.46 in 10.0 mi SW 20.7 mph 32.2 mph N/A   Overcast
5:38 PM 50.9 °F 40.1 °F 67% 29.46 in 10.0 mi SW 15.0 mph 24.2 mph N/A   Overcast
5:56 PM 50.9 °F 40.1 °F 67% 29.47 in 10.0 mi WSW 18.4 mph 24.2 mph N/A   Overcast
6:15 PM 50.5 °F 39.0 °F 65% 29.48 in 10.0 mi WSW 15.0 mph 31.1 mph N/A   Overcast
6:35 PM 50.4 °F 39.4 °F 66% 29.49 in 10.0 mi WSW 13.8 mph 27.6 mph N/A   Overcast
6:36 PM 50.2 °F 39.4 °F 66% 29.49 in 10.0 mi SW 15.0 mph 27.6 mph N/A   Overcast
6:59 PM 50.5 °F 38.7 °F 64% 29.50 in 10.0 mi WSW 13.8 mph 26.5 mph N/A   Overcast
7:17 PM 50.4 °F 38.7 °F 64% 29.50 in 10.0 mi WSW 17.3 mph 31.1 mph N/A   Overcast
7:35 PM 50.4 °F 38.7 °F 64% 29.51 in 10.0 mi WSW 17.3 mph 27.6 mph N/A   Overcast
7:55 PM 50.2 °F 38.3 °F 64% 29.52 in 10.0 mi WSW 20.7 mph 35.7 mph N/A   Overcast
7:56 PM 50.2 °F 38.3 °F 64% 29.52 in 10.0 mi WSW 20.7 mph 35.7 mph N/A   Overcast
8:15 PM 50.0 °F 38.3 °F 64% 29.53 in 10.0 mi WSW 17.3 mph 27.6 mph N/A   Overcast
8:20 PM 50.0 °F 38.3 °F 64% 29.53 in 10.0 mi WSW 18.4 mph 31.1 mph N/A   Overcast
8:38 PM 49.5 °F 38.7 °F 66% 29.53 in 7.0 mi WSW 18.4 mph 28.8 mph N/A Rain Light Rain
8:56 PM 49.1 °F 38.8 °F 68% 29.55 in 10.0 mi WSW 17.3 mph 32.2 mph N/A   Overcast
9:15 PM 49.3 °F 38.7 °F 67% 29.55 in 10.0 mi WSW 17.3 mph 27.6 mph N/A   Overcast
9:35 PM 49.3 °F 38.3 °F 66% 29.55 in 10.0 mi SW 17.3 mph 29.9 mph N/A   Overcast
9:36 PM 49.3 °F 38.3 °F 66% 29.55 in 10.0 mi WSW 16.1 mph 26.5 mph N/A   Overcast
9:59 PM 48.9 °F 38.1 °F 66% 29.55 in 10.0 mi WSW 16.1 mph 28.8 mph N/A   Light Drizzle
10:17 PM 48.7 °F 38.5 °F 68% 29.56 in 10.0 mi WSW 15.0 mph 24.2 mph N/A Rain Light Rain
10:35 PM 48.2 °F 38.8 °F 70% 29.57 in 10.0 mi WSW 15.0 mph 28.8 mph N/A   Drizzle
10:55 PM 47.8 °F 38.8 °F 71% 29.57 in 10.0 mi WSW 16.1 mph 26.5 mph N/A Rain Light Rain
10:56 PM 47.8 °F 38.8 °F 71% 29.57 in 10.0 mi WSW 18.4 mph 26.5 mph N/A Rain Light Rain
11:15 PM 48.2 °F 37.9 °F 68% 29.57 in 10.0 mi WSW 16.1 mph 29.9 mph N/A   Drizzle
11:20 PM 47.8 °F 37.9 °F 69% 29.57 in 10.0 mi WSW 17.3 mph 26.5 mph N/A Rain Light Rain
11:38 PM 47.7 °F 38.1 °F 70% 29.57 in 10.0 mi WSW 16.1 mph 27.6 mph N/A Rain Rain
11:56 PM 47.8 °F 37.6 °F 68% 29.58 in 10.0 mi WSW 12.7 mph 27.6 mph N/A   Light Drizzle